Probability
0 0 0 0 0 0 0 0 0 0 0 0 0 0 0 0 0 0 0 0 0 0 6 29 32 39 39 39 35 35 39 39 35 39 32 29 26 26 23 29 35 35 32 29 32 35 29 23 23
0 0 0 0 0 0 0 0 0 0 0 0 0 0 0 0 0 0 0 0 0 0 6 23 32 35 35 35 39 32 32 32 26 23 29 13 16 23 26 23 23 19 26 26 29 32 32 29 23
0 0 0 0 0 0 0 0 0 0 0 0 0 0 0 0 0 0 0 0 0 0 6 23 32 32 32 32 32 26 29 29 19 13 19 16 13 13 19 16 13 13 16 29 29 26 23 23 19
0 0 0 0 0 0 0 0 0 0 0 0 0 0 0 0 0 0 3 0 0 0 3 16 29 29 29 29 29 26 26 29 26 16 16 16 10 10 10 16 13 13 16 16 16 19 13 16 19
0 0 0 0 0 0 0 0 0 0 0 0 0 0 0 0 0 0 3 3 0 0 3 13 29 29 29 29 29 29 23 26 23 19 16 13 10 6 6 13 16 19 13 19 13 13 6 10 19
0 0 0 0 0 0 0 0 0 0 0 0 0 0 0 0 3 3 3 3 0 0 3 16 26 26 26 26 26 26 19 19 19 19 16 16 10 6 3 10 10 13 16 6 10 10 6 6 10
0 0 0 0 0 0 0 0 0 0 0 0 0 0 0 0 0 0 0 0 0 0 3 10 19 23 23 23 26 26 16 13 10 10 10 13 6 3 6 6 3 13 13 10 6 6 3 6 6
0 0 0 0 0 0 0 0 0 0 0 0 0 0 0 0 0 3 3 3 3 3 6 6 13 19 16 16 16 13 10 0 0 3 3 0 3 3 6 0 3 10 10 3 3 3 0 3 6
0 0 0 0 0 0 0 0 0 0 0 0 0 0 0 0 3 3 3 3 3 3 3 0 13 13 10 6 3 6 3 0 0 0 0 0 0 0 0 0 3 3 3 3 3 3 0 0 0
0 0 0 0 0 0 0 0 0 0 0 0 0 0 0 0 3 3 3 3 3 3 3 0 3 6 6 6 6 3 3 0 0 0 0 0 0 0 0 0 0 3 0 0 3 3 0 0 0
0 0 0 0 0 0 0 0 0 0 0 0 0 0 0 0 0 0 0 0 0 0 0 0 0 3 6 6 6 3 3 0 0 0 0 0 0 0 0 0 0 0 0 0 0 0 0 0 0
0 0 0 0 0 0 0 0 0 0 0 0 0 0 0 0 0 0 0 0 0 0 0 0 0 0 3 6 3 3 3 0 0 0 0 0 0 0 0 0 0 0 0 0 0 0 0 0 0
0 0 0 0 0 0 0 0 0 0 0 0 0 0 0 0 0 0 0 0 0 0 0 0 0 0 0 0 3 3 3 0 0 0 0 0 0 0 0 0 0 0 0 0 0 0 0 0 0
0 0 0 0 0 0 0 0 0 0 0 0 0 0 0 0 0 0 0 0 0 0 0 0 0 0 0 0 0 0 0 0 0 0 0 0 0 0 0 0 0 0 0 0 0 0 0 0 0
0 0 0 0 0 0 0 0 0 0 0 0 0 0 0 0 0 0 0 0 0 0 0 0 0 0 0 0 0 0 0 3 0 0 0 0 0 0 0 0 0 0 0 0 0 0 0 0 0
0 0 0 0 0 0 0 0 0 0 0 0 0 0 0 0 0 0 0 0 0 0 0 0 0 0 0 0 0 0 0 0 0 0 0 0 0 0 0 0 0 0 0 0 0 0 0 0 0
0 0 0 0 0 0 0 0 0 0 0 0 0 0 0 0 0 0 0 0 0 0 0 0 0 0 0 0 0 0 0 0 0 0 0 0 0 0 0 0 0 0 0 0 0 0 0 0 0
0 0 0 0 0 0 0 0 0 0 0 0 0 0 0 0 0 0 0 0 0 0 0 0 0 0 0 0 0 0 0 0 0 0 0 0 0 0 0 0 0 0 0 0 0 0 0 0 0
0 0 0 0 0 0 0 0 0 0 0 0 0 0 0 0 0 0 0 0 0 0 0 0 0 0 0 0 0 0 0 0 0 0 0 0 0 0 0 0 0 0 0 0 0 0 0 0 0
0 0 0 0 0 0 0 0 0 0 0 0 0 0 0 0 0 0 0 0 0 0 0 0 0 0 0 0 0 0 0 0 0 0 0 0 0 0 0 0 0 0 0 0 0 0 0 0 0
0 0 0 0 0 0 0 0 0 0 0 0 0 0 0 0 0 0 0 0 0 0 0 0 0 0 0 0 0 0 0 0 0 0 0 0 0 0 0 0 0 0 0 0 0 0 0 0 0
0 0 0 0 0 0 0 0 0 0 0 0 0 0 0 0 0 0 0 0 0 0 0 0 0 0 0 0 0 0 0 0 0 0 0 0 0 0 0 0 0 0 0 0 0 0 0 0 0
0 0 0 0 0 0 0 0 0 0 0 0 0 0 0 0 0 0 0 0 0 0 0 0 0 0 0 0 0 0 0 0 0 0 0 0 0 0 0 0 0 0 0 0 0 0 0 0 0
0 0 0 0 0 0 0 0 0 0 0 0 0 0 0 0 0 0 0 0 0 0 0 0 0 0 0 0 0 0 0 0 0 0 0 0 0 0 0 0 0 0 0 0 0 0 0 0 0
0 0 0 0 0 0 0 0 0 0 0 0 0 0 0 0 0 0 0 0 0 0 0 0 0 0 0 0 0 0 0 0 0 0 0 0 0 0 0 0 0 0 0 0 0 0 0 0 0
0 0 0 0 0 0 0 0 0 0 0 0 0 0 0 0 0 0 0 0 0 0 0 0 0 0 0 0 0 0 0 0 0 0 0 0 0 0 0 0 0 0 0 0 0 0 0 0 0
0 0 0 0 0 0 0 0 0 0 0 0 0 0 0 0 0 0 0 0 0 0 0 0 0 0 0 0 0 0 0 0 0 0 0 0 0 0 0 0 0 0 0 0 0 0 0 0 0
0 0 0 0 0 0 0 0 0 0 0 0 0 0 0 0 0 0 0 0 0 0 0 0 0 0 0 0 0 0 0 0 0 0 0 0 0 0 0 0 0 0 0 0 0 0 0 0 0
0 0 0 0 0 0 0 0 0 0 0 0 0 0 0 0 0 0 0 0 0 0 0 0 0 0 0 0 0 0 0 0 0 0 0 0 0 0 0 0 0 0 0 0 0 0 0 0 0
0 0 0 0 0 0 0 0 0 0 0 0 0 0 0 0 0 0 0 0 0 0 0 0 0 0 0 0 0 0 0 0 0 0 0 0 0 0 0 0 0 0 0 0 0 0 0 0 0
Height
5796 5798 5800 5802 5805 5807 5809 5812 5813 5815 5817 5818 5820 5822 5824 5826 5828 5831 5832 5831 5832 5833 5834 5835 5836 5837 5838 5839 5840 5841 5842 5843 5843 5844 5845 5846 5847 5847 5848 5849 5849 5850 5851 5851 5852 5852 5852 5853 5853
5791 5794 5796 5798 5800 5803 5806 5808 5810 5811 5813 5814 5816 5818 5820 5821 5823 5825 5826 5827 5828 5829 5830 5831 5832 5833 5834 5835 5836 5837 5838 5839 5840 5840 5841 5842 5842 5843 5844 5845 5846 5846 5847 5847 5848 5848 5849 5849 5849
5787 5789 5792 5794 5796 5799 5802 5804 5805 5807 5809 5811 5812 5814 5816 5818 5819 5820 5822 5823 5824 5825 5826 5827 5829 5829 5830 5831 5832 5833 5834 5835 5835 5836 5837 5837 5838 5839 5839 5840 5841 5842 5842 5843 5844 5844 5845 5845 5846
5783 5785 5787 5790 5792 5795 5797 5799 5801 5803 5805 5807 5808 5810 5812 5814 5815 5816 5817 5819 5820 5821 5822 5823 5824 5825 5826 5827 5828 5829 5829 5830 5831 5831 5832 5832 5833 5834 5834 5835 5836 5837 5838 5838 5839 5840 5840 5841 5841
5778 5780 5783 5785 5788 5791 5793 5795 5797 5799 5800 5802 5804 5806 5808 5809 5811 5812 5813 5815 5816 5817 5818 5819 5820 5821 5822 5822 5823 5824 5824 5825 5825 5826 5827 5827 5828 5829 5829 5830 5831 5831 5832 5833 5834 5835 5835 5836 5836
5774 5776 5779 5781 5784 5786 5788 5790 5792 5794 5796 5798 5800 5801 5803 5805 5806 5807 5809 5810 5811 5812 5813 5814 5815 5816 5816 5817 5818 5818 5819 5819 5820 5820 5821 5822 5822 5823 5823 5824 5825 5826 5826 5827 5828 5829 5829 5830 5831
5771 5772 5774 5777 5779 5781 5783 5785 5787 5789 5791 5793 5795 5797 5798 5800 5801 5803 5804 5805 5806 5807 5808 5809 5810 5811 5811 5811 5812 5812 5813 5813 5814 5814 5815 5815 5816 5816 5816 5817 5818 5819 5820 5821 5822 5822 5823 5824 5825
5765 5768 5769 5772 5774 5776 5778 5780 5782 5784 5786 5788 5790 5792 5793 5795 5796 5797 5799 5800 5801 5802 5802 5803 5804 5805 5805 5805 5806 5806 5806 5806 5807 5807 5807 5808 5808 5809 5810 5810 5811 5812 5813 5814 5815 5815 5816 5817 5818
5760 5764 5765 5767 5769 5771 5773 5775 5777 5779 5781 5783 5785 5787 5788 5789 5790 5792 5793 5794 5795 5795 5796 5797 5798 5798 5798 5799 5799 5799 5799 5799 5799 5799 5800 5800 5801 5801 5802 5802 5803 5804 5805 5806 5807 5808 5809 5810 5811
5755 5758 5761 5762 5764 5766 5768 5770 5772 5774 5776 5778 5779 5781 5782 5783 5785 5786 5787 5788 5788 5789 5790 5790 5791 5791 5791 5791 5792 5792 5792 5792 5791 5791 5791 5792 5792 5792 5793 5794 5795 5795 5796 5797 5798 5799 5801 5802 5803
5749 5753 5755 5756 5758 5760 5762 5764 5766 5768 5771 5772 5774 5775 5776 5778 5779 5780 5781 5781 5782 5783 5783 5783 5783 5784 5784 5784 5784 5784 5784 5783 5783 5783 5782 5783 5783 5783 5784 5784 5785 5786 5787 5788 5789 5790 5792 5793 5794
5744 5747 5748 5751 5752 5754 5757 5759 5761 5763 5765 5766 5768 5769 5770 5772 5773 5774 5774 5775 5775 5776 5776 5776 5776 5776 5776 5776 5776 5775 5775 5774 5774 5773 5773 5773 5773 5774 5774 5775 5775 5776 5777 5778 5779 5781 5782 5784 5785
5739 5741 5743 5745 5747 5749 5751 5753 5755 5758 5759 5760 5762 5763 5764 5765 5766 5767 5767 5768 5768 5768 5768 5768 5768 5768 5767 5767 5766 5766 5765 5765 5764 5763 5763 5763 5763 5763 5764 5764 5765 5766 5767 5768 5769 5770 5772 5774 5775
5733 5735 5737 5739 5741 5743 5745 5747 5750 5753 5753 5754 5756 5757 5758 5758 5759 5760 5760 5760 5760 5760 5760 5760 5760 5759 5759 5758 5757 5756 5755 5755 5754 5753 5753 5753 5752 5753 5753 5753 5754 5755 5756 5757 5758 5759 5761 5763 5765
5727 5730 5732 5734 5735 5737 5739 5742 5745 5746 5747 5748 5750 5751 5751 5752 5752 5752 5752 5752 5752 5752 5752 5751 5751 5751 5750 5749 5748 5747 5746 5745 5744 5743 5743 5742 5742 5741 5741 5742 5743 5744 5744 5745 5746 5748 5750 5752 5754
5722 5724 5727 5729 5730 5732 5735 5738 5740 5739 5741 5742 5743 5744 5745 5745 5745 5745 5744 5744 5744 5744 5744 5743 5743 5742 5741 5740 5739 5738 5736 5735 5734 5733 5733 5732 5731 5731 5730 5730 5731 5732 5733 5734 5735 5736 5738 5740 5742
5716 5718 5721 5724 5724 5726 5728 5731 5733 5733 5734 5736 5737 5737 5738 5738 5738 5737 5737 5736 5736 5735 5735 5735 5734 5733 5732 5731 5730 5728 5727 5725 5724 5723 5722 5721 5720 5719 5719 5718 5719 5719 5720 5721 5723 5724 5725 5727 5729
5710 5712 5714 5717 5718 5720 5722 5725 5727 5727 5728 5729 5730 5731 5731 5731 5731 5730 5729 5728 5728 5727 5727 5726 5725 5724 5723 5722 5720 5719 5717 5715 5714 5713 5711 5710 5708 5707 5706 5706 5706 5706 5707 5708 5709 5711 5712 5714 5716
5703 5705 5708 5710 5711 5713 5715 5718 5720 5721 5722 5723 5723 5723 5724 5723 5723 5722 5722 5721 5720 5719 5718 5717 5716 5715 5713 5712 5711 5709 5708 5706 5704 5702 5700 5698 5696 5695 5694 5693 5693 5693 5694 5695 5696 5697 5699 5701 5702
5696 5699 5701 5704 5705 5706 5708 5711 5713 5714 5715 5716 5716 5716 5716 5716 5716 5715 5714 5713 5711 5710 5708 5707 5706 5705 5704 5702 5701 5699 5697 5695 5693 5691 5689 5686 5684 5682 5680 5680 5679 5679 5680 5681 5682 5683 5685 5686 5688
5689 5692 5694 5696 5698 5699 5701 5704 5707 5708 5708 5709 5709 5709 5709 5709 5708 5708 5706 5705 5703 5701 5699 5697 5696 5695 5694 5692 5691 5689 5687 5684 5682 5680 5677 5675 5672 5669 5667 5665 5665 5664 5665 5666 5667 5669 5671 5673 5675
5683 5685 5687 5688 5690 5692 5695 5695 5701 5701 5701 5701 5702 5702 5702 5701 5700 5700 5698 5697 5694 5692 5690 5688 5687 5686 5684 5682 5681 5678 5676 5674 5671 5669 5666 5663 5660 5657 5654 5652 5650 5650 5651 5652 5653 5655 5657 5658 5660
5675 5677 5679 5681 5682 5685 5687 5688 5693 5694 5694 5695 5695 5695 5694 5693 5693 5691 5690 5688 5686 5684 5682 5680 5678 5676 5674 5672 5670 5668 5665 5663 5660 5658 5655 5652 5649 5645 5642 5639 5637 5636 5637 5638 5639 5641 5643 5644 5645
5667 5670 5672 5673 5674 5677 5681 5681 5684 5687 5687 5688 5688 5687 5686 5686 5685 5683 5682 5680 5677 5675 5673 5671 5669 5667 5665 5662 5660 5658 5655 5652 5649 5646 5643 5640 5637 5634 5630 5628 5626 5625 5624 5625 5627 5628 5630 5630 5632
5660 5663 5665 5665 5666 5670 5673 5673 5677 5679 5680 5680 5680 5680 5679 5678 5677 5675 5674 5672 5669 5667 5664 5662 5660 5658 5655 5653 5650 5647 5644 5641 5638 5635 5632 5629 5626 5623 5620 5618 5616 5615 5614 5615 5616 5617 5618 5618 5619
5653 5655 5658 5659 5661 5663 5665 5666 5671 5672 5672 5672 5672 5672 5671 5670 5668 5667 5665 5663 5660 5658 5655 5653 5650 5648 5646 5643 5640 5637 5634 5631 5627 5624 5621 5619 5616 5613 5611 5608 5607 5606 5606 5606 5606 5607 5608 5608 5608
5644 5647 5650 5651 5652 5655 5657 5660 5663 5664 5665 5665 5665 5664 5663 5662 5660 5658 5656 5653 5651 5649 5646 5644 5641 5638 5635 5632 5630 5627 5624 5621 5618 5615 5612 5610 5607 5604 5602 5600 5599 5598 5598 5598 5598 5598 5598 5598 5599
5636 5639 5642 5643 5644 5646 5649 5653 5656 5657 5657 5658 5658 5656 5655 5654 5652 5649 5647 5644 5642 5639 5637 5634 5631 5628 5626 5623 5621 5618 5615 5613 5610 5606 5604 5601 5599 5596 5594 5593 5591 5590 5590 5589 5589 5589 5589 5589 5590
5629 5632 5634 5636 5637 5640 5642 5648 5649 5649 5650 5650 5649 5648 5647 5645 5643 5641 5638 5635 5633 5630 5628 5625 5622 5619 5617 5614 5612 5610 5607 5605 5602 5599 5596 5594 5592 5590 5588 5586 5584 5583 5582 5581 5581 5581 5581 5581 5582
5619 5623 5626 5629 5631 5632 5634 5641 5641 5641 5641 5642 5641 5640 5639 5637 5635 5632 5630 5627 5624 5621 5619 5616 5614 5612 5609 5606 5604 5602 5600 5598 5596 5593 5590 5588 5586 5584 5582 5579 5578 5576 5575 5574 5574 5573 5573 5574 5574
Wind_Speed
26 26 27 27 27 27 25 23 23 23 23 23 23 22 22 22 21 22 21 20 21 21 22 22 21 21 21 21 20 20 20 20 20 20 20 20 20 20 20 20 20 20 19 19 18 18 18 18 18
26 27 27 28 27 25 24 24 24 24 24 24 24 23 23 22 22 22 22 22 22 22 22 22 22 22 21 21 21 21 21 22 22 22 22 22 22 22 22 22 22 22 22 21 21 20 20 20 19
26 27 28 28 27 25 24 24 24 25 25 25 24 24 24 23 23 23 23 23 23 22 22 22 23 23 23 23 23 23 23 23 24 24 25 25 25 25 25 24 24 24 24 24 24 23 23 22 22
25 27 27 27 26 25 25 25 25 25 25 25 25 25 25 24 24 24 24 24 24 23 23 23 24 24 24 24 24 25 25 26 26 26 27 27 27 27 27 27 26 26 26 25 26 26 25 25 24
24 26 27 27 26 26 26 26 26 26 26 26 26 26 25 25 25 25 25 25 25 25 25 25 25 26 26 26 26 26 27 27 28 28 28 29 29 29 29 29 29 28 28 28 27 27 27 27 26
23 24 25 25 25 26 26 26 26 26 26 26 26 26 26 25 25 26 25 25 26 26 26 26 26 27 28 28 29 29 29 30 30 30 30 30 31 31 32 31 31 31 30 30 29 29 28 28 28
23 24 24 24 25 26 26 27 26 26 26 27 27 27 26 27 27 26 26 27 27 27 27 28 28 29 29 30 31 31 31 32 32 32 33 33 33 34 34 34 34 33 33 32 32 32 31 31 30
25 25 24 24 25 26 27 27 27 27 27 27 27 26 27 27 27 28 28 28 28 28 29 29 30 30 30 31 32 32 32 33 34 34 35 35 35 36 36 37 36 36 36 35 35 34 34 33 32
26 26 25 25 25 26 27 27 27 28 27 27 27 27 27 28 28 29 29 29 29 30 30 31 31 32 32 32 33 33 34 35 35 36 36 37 37 38 38 38 38 38 38 38 38 37 37 36 35
27 26 25 26 26 26 27 27 28 28 28 27 27 27 28 28 29 29 29 30 30 31 32 32 33 33 34 35 35 36 37 37 38 38 38 39 39 40 40 40 40 39 40 40 40 39 38 38 37
26 25 26 26 27 27 27 27 27 28 28 28 28 28 29 29 29 29 30 30 31 32 32 33 34 35 36 37 37 38 39 39 40 40 41 40 40 41 41 42 42 42 42 41 41 41 41 40 39
26 25 26 26 27 27 28 28 27 27 27 28 29 29 29 29 29 30 30 31 32 33 33 35 36 37 38 39 39 40 40 41 41 41 42 42 41 41 41 42 42 43 43 44 43 43 43 42 41
26 25 26 26 27 27 28 28 27 26 27 27 28 28 28 29 30 30 31 32 33 34 35 36 37 38 39 40 40 41 41 42 42 42 42 42 42 42 42 43 43 44 45 45 45 46 45 44 43
26 26 26 26 27 27 28 28 27 26 27 27 27 28 28 29 30 31 31 32 34 35 36 36 37 37 38 38 39 39 40 40 41 41 41 42 43 43 44 44 45 45 46 46 46 47 47 46 46
27 26 26 26 27 27 28 28 26 27 28 27 27 28 28 28 29 30 31 33 34 34 34 35 35 36 37 37 38 38 39 39 40 40 41 42 43 44 45 45 45 45 46 47 47 47 48 48 47
27 27 27 26 27 27 28 26 26 27 27 27 27 27 28 28 29 30 31 32 32 33 33 34 35 35 36 37 38 38 38 39 40 40 41 43 44 45 45 45 46 47 47 48 48 48 48 48 48
28 27 27 27 27 27 28 25 25 26 27 27 27 27 27 28 29 30 30 31 32 33 33 34 34 35 36 36 37 38 39 39 40 40 41 43 44 45 46 46 47 47 48 49 49 49 49 49 49
28 28 27 27 28 28 28 26 25 26 27 27 27 27 28 28 29 29 30 31 32 33 34 34 35 35 36 36 37 38 39 39 40 41 42 43 44 45 46 46 47 48 49 49 50 50 50 50 50
30 29 28 28 29 29 28 27 26 27 27 27 27 28 28 28 29 29 30 31 32 33 34 35 35 35 36 36 37 37 38 39 40 41 42 43 43 44 45 46 47 48 49 49 50 51 51 51 51
31 30 29 29 30 30 29 28 27 27 27 27 27 28 28 28 29 30 31 32 33 33 34 34 35 35 36 36 36 36 37 39 40 41 42 43 44 44 46 47 48 49 49 49 50 51 50 50 51
31 31 30 30 30 31 30 29 27 28 28 27 27 28 28 29 29 30 31 32 33 33 33 34 35 35 36 36 36 37 38 39 40 41 42 43 43 44 45 47 47 48 48 49 49 49 49 50 50
31 31 31 31 31 31 31 31 27 28 28 27 27 27 28 29 30 30 31 31 32 33 34 34 35 35 35 36 36 37 38 38 39 40 41 41 41 42 43 44 45 46 47 47 47 48 49 50 50
32 31 32 32 33 32 31 32 28 27 27 27 27 28 28 29 30 30 30 31 32 32 33 34 34 34 34 36 36 37 37 38 38 39 40 40 41 41 41 42 42 43 44 45 46 47 47 48 48
32 32 32 33 34 34 31 32 29 26 26 26 27 28 28 29 29 30 30 30 30 31 32 33 33 34 34 35 36 36 37 37 37 38 39 39 39 40 39 38 38 38 40 42 43 44 45 46 47
33 33 33 34 35 34 31 32 30 27 26 27 27 28 28 29 29 29 29 29 29 30 31 32 32 33 33 34 35 35 35 36 37 37 36 36 36 37 37 37 36 37 37 38 39 40 41 42 43
33 33 33 34 34 32 31 31 29 28 27 27 27 27 28 28 28 29 29 29 29 30 31 31 30 31 32 34 34 33 34 34 35 35 34 33 34 34 35 35 36 35 34 35 35 35 37 39 41
34 34 33 33 34 33 33 31 29 28 27 26 26 27 27 28 28 28 29 29 30 30 30 31 31 31 32 32 32 32 33 33 33 33 33 32 32 33 33 33 33 32 33 33 34 35 36 38 38
35 34 33 34 34 34 33 31 29 27 26 26 26 26 27 28 28 28 29 30 30 31 31 31 31 31 31 31 31 32 32 31 31 31 31 31 31 31 31 31 32 31 32 32 33 33 35 35 36
35 35 34 34 35 34 34 31 29 28 27 26 26 26 27 27 27 28 29 30 31 31 31 30 30 30 30 30 30 30 30 29 29 29 29 30 30 29 30 30 31 31 31 31 31 32 34 34 34
37 35 34 34 34 34 34 32 29 28 27 26 26 26 27 27 27 28 29 29 29 29 29 28 29 29 29 28 28 28 27 27 27 28 28 28 28 28 28 29 29 30 30 30 30 31 32 33 33
Wind_Direction
238 238 238 238 239 239 238 238 238 238 239 240 241 242 243 244 245 247 247 247 248 249 250 252 253 255 255 256 257 259 260 261 262 263 264 263 263 264 265 266 266 267 269 270 271 272 273 274 274
238 238 238 238 239 238 238 238 238 238 239 240 241 242 243 244 246 249 248 248 249 249 250 252 254 256 256 257 259 260 261 262 263 264 265 265 264 264 265 265 265 266 267 268 269 270 272 274 275
238 238 238 238 238 239 238 238 238 239 239 241 242 243 244 246 247 249 249 250 250 251 251 252 254 256 257 259 260 262 263 263 263 264 264 265 265 265 265 266 267 267 267 267 268 270 271 273 275
239 239 239 238 238 238 239 239 239 240 240 241 243 245 246 247 249 250 250 251 252 253 254 255 256 257 259 261 262 262 264 264 264 265 265 265 265 265 266 267 268 268 268 268 267 268 270 271 272
240 240 239 239 239 239 240 240 240 241 242 243 244 246 247 248 249 251 252 253 254 256 257 258 259 260 262 262 263 263 264 265 265 265 265 266 266 266 266 266 267 268 268 268 268 268 268 269 270
242 242 241 240 239 239 240 240 241 242 243 244 245 246 247 249 250 251 253 254 256 257 259 260 261 262 264 265 265 265 265 266 267 266 266 266 266 266 266 266 266 266 267 268 267 267 267 268 270
243 242 242 240 239 239 239 240 242 243 244 245 246 247 249 250 251 253 254 256 258 259 260 261 262 263 265 266 266 266 267 267 267 267 267 266 266 266 266 266 266 266 266 266 267 267 266 267 268
243 243 242 241 240 239 240 241 241 242 244 245 247 249 251 252 253 255 256 257 259 260 261 263 264 266 266 267 267 267 267 267 268 268 267 267 266 266 266 266 266 266 266 266 267 267 267 267 267
244 244 243 241 240 240 241 242 242 242 244 246 248 250 252 253 255 256 257 258 259 261 262 264 265 266 267 268 268 268 269 269 268 268 268 268 267 267 267 267 266 266 266 266 266 267 267 267 267
245 245 243 242 241 241 241 241 241 242 244 246 248 250 252 254 255 257 258 260 261 262 263 265 266 268 269 269 269 269 270 269 269 269 269 268 268 267 267 267 266 265 265 266 266 266 266 266 266
245 244 243 242 242 241 241 241 242 243 245 247 249 251 253 255 256 258 260 261 263 264 265 267 268 269 270 270 270 270 270 271 271 270 270 269 268 267 267 266 265 264 265 265 265 265 265 265 265
245 243 242 242 243 243 243 243 244 245 246 248 250 253 256 257 258 259 261 263 264 265 267 268 269 270 270 271 271 272 271 271 271 271 270 269 268 267 267 266 266 265 264 264 264 264 263 264 265
244 243 243 242 243 243 244 244 245 246 248 250 253 255 258 260 261 262 263 265 266 267 268 269 270 271 272 272 272 272 272 272 272 271 270 269 268 267 266 265 265 265 265 265 264 264 262 263 264
244 243 243 243 243 244 244 245 246 248 251 253 255 257 259 262 264 265 266 267 268 269 269 269 271 272 273 273 274 274 273 273 273 272 271 269 268 268 266 264 264 265 264 264 264 264 262 262 262
243 243 243 243 244 245 246 246 248 249 252 255 257 260 262 265 267 268 268 269 270 270 270 271 272 273 274 275 275 275 274 274 274 273 272 271 270 269 268 266 265 265 265 264 264 264 263 263 262
244 244 244 244 245 245 247 247 249 251 254 257 259 262 264 266 268 269 270 270 270 271 272 273 274 274 275 275 275 275 276 275 274 273 272 271 270 269 269 268 266 265 264 264 264 264 264 263 261
245 245 244 244 245 246 247 248 249 253 255 258 261 264 265 267 269 270 271 271 272 273 273 274 274 274 275 275 275 276 276 276 275 274 273 272 271 270 270 268 267 266 265 264 264 264 264 264 263
244 244 244 244 245 247 249 249 250 253 256 259 263 265 267 269 270 270 271 272 273 274 275 275 275 275 275 276 277 277 277 277 277 276 275 274 273 271 270 268 267 266 265 264 264 264 264 264 263
243 244 244 245 247 249 250 251 252 254 258 261 264 266 268 269 270 271 272 274 275 276 276 276 276 276 276 277 278 278 279 279 278 277 276 276 274 273 271 270 269 268 266 265 265 265 264 264 263
243 244 245 246 248 250 251 252 254 257 260 263 265 267 268 269 270 272 273 275 277 277 277 277 277 277 278 278 279 280 280 279 278 278 278 278 277 275 274 272 272 270 267 267 266 264 264 264 264
244 245 245 247 248 251 254 253 255 259 262 264 266 267 268 270 272 274 275 277 278 278 278 277 277 279 279 279 279 281 282 281 279 279 279 280 281 279 276 274 272 271 268 267 266 265 264 264 263
244 245 246 247 249 251 254 255 253 259 262 264 265 267 269 272 275 276 277 278 279 279 279 279 280 281 281 281 281 283 283 282 281 280 280 281 282 283 279 276 273 271 269 267 265 264 264 265 265
243 244 246 248 250 252 253 258 255 258 262 264 266 268 271 274 276 277 278 279 280 279 280 281 282 282 282 282 283 284 284 283 282 282 281 282 283 284 283 279 276 273 270 268 266 264 265 265 265
243 244 247 248 250 252 254 258 259 260 263 264 266 269 272 274 276 278 278 280 282 281 282 282 283 283 283 284 284 285 285 284 283 284 284 284 284 284 283 281 279 276 273 269 268 266 265 265 266
243 245 248 250 251 254 255 258 260 263 264 265 267 270 272 274 276 278 279 281 283 284 285 285 284 283 284 285 286 287 287 286 286 286 286 286 286 284 282 280 279 278 275 271 270 268 266 265 266
243 245 248 251 253 255 256 258 261 264 265 266 269 271 273 275 278 280 282 284 285 286 287 287 285 285 285 287 288 288 289 289 288 287 286 288 289 285 283 280 278 277 275 274 272 271 269 269 267
241 244 246 250 253 255 255 257 260 264 266 268 270 272 273 276 279 281 284 285 286 287 288 289 288 286 286 287 288 288 289 291 291 290 288 288 289 286 284 282 279 277 276 275 272 272 273 273 271
241 243 245 248 252 255 256 257 260 264 266 268 270 272 274 278 281 284 286 285 286 287 288 290 290 288 288 287 288 289 289 290 292 292 289 289 289 287 284 284 282 280 278 276 275 275 277 278 274
240 242 245 248 251 255 257 258 261 266 267 270 272 274 277 281 283 285 288 287 287 288 288 289 290 291 290 289 290 291 289 289 291 293 291 290 289 287 286 285 284 282 280 279 278 279 279 278 275
240 242 244 248 251 254 257 258 262 266 268 271 274 276 280 283 284 286 289 290 289 290 289 289 290 293 293 291 290 291 291 291 293 295 293 291 289 288 288 288 287 286 283 280 281 281 279 277 277